Regional Weather Roundup
Issued by NWS

Home | Current Version | Previous Version | Text Only | Print | Product List | Glossary On
Versions: 1 2 3 4 5 6 7 8 9 10 11 12 13 14 15 16 17 18 19 20 21 22 23 24 25 26 27 28 29 30 31 32 33 34 35 36 37 38 39 40 41 42 43 44 45 46 47 48 49 50
000
ASUS43 KDMX 280006
RWRIA

WEATHER ROUNDUP FOR IOWA
NATIONAL WEATHER SERVICE DES MOINES IA
700 PM CDT TUE JUN 27 2017

NOTE: "FAIR" INDICATES FEW OR NO CLOUDS BELOW 12,000 FEET WITH NO
SIGNIFICANT WEATHER AND/OR OBSTRUCTIONS TO VISIBILITY.

* - THESE STATIONS ARE NOT NWS STATIONS...THUS NOT UNDER NWS
QUALITY CONTROL.  THEY ALSO DO NOT REPORT WEATHER SUCH
AS PRECIPITATION OR FOG.

IAZ001>003-012>014-020>022-031>034-043>046-280100-
   NORTHWEST IOWA

CITY           SKY/WX    TMP DP  RH WIND       PRES   REMARKS
CARROLL *        N/A     79  59  50 S20G28    29.84F HX  80
CHEROKEE *       N/A     78  57  48 S16G25    29.80F
DENISON *        N/A     77  61  57 MISG      29.84F
LE MARS *        N/A     79  61  53 S22G29    29.76F HX  80
ORANGE CITY *    N/A     79  59  50 S20G26    29.77F HX  80
SHELDON *        N/A     77  55  47 S21G31    29.77F
SIOUX CITY       N/A     79  62  56 S21G28    29.77F HX  80
6HR MIN TEMP:  76; 6HR MAX TEMP:  82;

SPENCER          N/A     79  53  40 S22G29    29.81F
6HR MIN TEMP:  74; 6HR MAX TEMP:  81;

STORM LAKE *     N/A     77  57  50 S18G25    29.82F
$$

IAZ055>058-069>071-079>083-090>094-280100-
   SOUTHWEST IOWA

CITY           SKY/WX    TMP DP  RH WIND       PRES   REMARKS
ATLANTIC *     PTSUNNY   77  63  61 S15       29.85F
AUDUBON *        N/A     77  63  61 S12G20    29.87S
CLARINDA *       N/A     79  64  61 S13G21    29.88F HX  81
COUNCIL BLFS *   N/A     77  66  69 SE20G28   29.83F
CRESTON *      CLOUDY    75  59  57 SE15      29.91F
HARLAN  *      PTSUNNY   77  63  61 S17G25    29.87F
LAMONI         CLOUDY    76  60  57 S9G20     29.92F
6HR MIN TEMP:  74; 6HR MAX TEMP:  79;

RED OAK *        N/A     77  64  65 S17       29.85F
SHENANDOAH *   PTSUNNY   79  66  65 S17       29.85F HX  81
$$

IAZ047>049-059>061-072>074-084-280100-
   CENTRAL IOWA

CITY           SKY/WX    TMP DP  RH WIND       PRES   REMARKS
AMES             N/A     76  55  48 SE15G21   29.89F
6HR MIN TEMP:  73; 6HR MAX TEMP:  77;

ANKENY *         N/A     77  55  47 SE14G21   29.91F
BOONE *          N/A     77  54  44 SE13G18   29.88F
CHARITON *       N/A     77  55  47 S14G24    29.93S
DES MOINES       N/A     79  55  43 SE17      29.90F
6HR MIN TEMP:  75; 6HR MAX TEMP:  80;

GRINNELL*        N/A     76  48  37 S12       29.95F
KNOXVILLE *      N/A     77  52  41 S10       29.92S
MARSHALLTOWN     N/A     75  48  38 S17       29.91F
6HR MIN TEMP:  73; 6HR MAX TEMP:  77;

NEWTON *         N/A     75  50  41 S14G21    29.93F
PELLA *          N/A     77  51  39 S10       29.94F
PERRY *          N/A     78  53  41 SE14G21   29.87F
$$

IAZ004>006-015-016-023>025-035-036-280100-
   NORTH CENTRAL IOWA

CITY           SKY/WX    TMP DP  RH WIND       PRES   REMARKS
ALGONA *         N/A     75  48  38 S17G25    29.85F
CLARION *        N/A     75  48  38 S20       29.88F
ESTHERVILLE      N/A     75  50  41 S22G29    29.82F
6HR MIN TEMP:  71; 6HR MAX TEMP:  76;

FORT DODGE *     N/A     77  48  36 S12G18    29.87F
MASON CITY       N/A     73  43  33 S16G24    29.90F
6HR MIN TEMP:  72; 6HR MAX TEMP:  77;

FOREST CITY *    N/A     73  30  20 S17G24    29.87F
WEBSTER CITY *   N/A     75  50  41 SE16G24   29.86F
IOWA FALLS *     N/A     76  48  37 S16G22    29.92F
$$

IAZ007>011-017>019-026>030-037>042-050>054-066-280100-
   NORTHEAST IOWA

CITY           SKY/WX    TMP DP  RH WIND       PRES   REMARKS
CEDAR RAPIDS     N/A     74  46  36 S12       29.97F
6HR MIN TEMP:  72; 6HR MAX TEMP:  75;

CHARLES CITY *   N/A     73  41  31 S14G20    29.92F
CLINTON *        N/A     73  49  42 S10       30.01F
DECORAH *        N/A     70  48  46 S7G13     29.94F
DUBUQUE          N/A     71  45  39 S13       29.99F
6HR MIN TEMP:  70; 6HR MAX TEMP:  73;

MONTICELLO *     N/A     72  45  37 S10G17    29.98F
OELWEIN *        N/A     73  45  35 S13       29.96F
WATERLOO         N/A     73  43  33 S14       29.92F
6HR MIN TEMP:  73; 6HR MAX TEMP:  76;

$$

IAZ064-065-067-068-078-280100-
   EAST CENTRAL IOWA

CITY           SKY/WX    TMP DP  RH WIND       PRES   REMARKS
IOWA CITY        N/A     76  47  35 S8        29.99F
6HR MIN TEMP:  74; 6HR MAX TEMP:  78;

MT. PLEASANT *   N/A     76  43  30 S10       29.99F
MUSCATINE *      N/A     77  43  29 SE9       29.99F
QUAD CITIES      N/A     74  46  36 S7        30.00F
6HR MIN TEMP:  73; 6HR MAX TEMP:  77;

$$

IAZ062-063-075>077-085>089-095>099-280100-
   SOUTHEAST IOWA

CITY           SKY/WX    TMP DP  RH WIND       PRES   REMARKS
BURLINGTON       N/A     75  50  41 S10       29.99F
6HR MIN TEMP:  73; 6HR MAX TEMP:  77;

FAIRFIELD *      N/A     77  48  36 SE15      29.97F
FORT MADISON *   N/A     75  52  43 S9        30.00F
KEOKUK *         N/A     75  50  41 S6        29.98F
OSKALOOSA *      N/A     76  50  39 S15       29.95F
CENTERVILLE *    N/A     75  54  46 SE5       29.96F
OTTUMWA          N/A     77  49  37 S13       29.95F
6HR MIN TEMP:  74; 6HR MAX TEMP:  79;

WASHINGTON *     N/A     75  48  38 S9G17     29.99F
$$

ABBREVIATIONS USED IN REMARKS
   TC - TEMPERATURES IN CELSIUS
  WCI - WIND CHILL INDEX
   HX - HEAT INDEX
  VSB - VISIBILITY
$$





USA.gov is the U.S. government's official web portal to all federal, state and local government web resources and services.